This is the latest recevied weather packets stored in our database for station/object WB3IGR. If no packets are shown the sender has not sent any weather packets the latest 10 day(s).
| Time | Temp. | Humidity | Pressure | Rain* | Wind** | Luminosity | Snow |
|---|---|---|---|---|---|---|---|
| 1777384418 | 12.22° C | 72% | 1022.6 hPa | 0 mm | - | 79 W/m² | - |
| 1777384115 | 12.22° C | 72% | 1022.7 hPa | 0 mm | - | 82 W/m² | - |
| 1777383811 | 12.22° C | 72% | 1022.6 hPa | 0 mm | - | 88 W/m² | - |
| 1777383507 | 12.22° C | 71% | 1022.6 hPa | 0 mm | - | 91 W/m² | - |
| 1777383204 | 12.22° C | 71% | 1022.5 hPa | 0 mm | - | 97 W/m² | - |
| 1777382901 | 12.22° C | 70% | 1022.6 hPa | 0 mm | - | 99 W/m² | - |
| 1777382596 | 12.22° C | 71% | 1022.7 hPa | 0 mm | - | 108 W/m² | - |
| 1777382292 | 12.22° C | 71% | 1022.8 hPa | 0 mm | - | 120 W/m² | - |
| 1777381989 | 12.22° C | 71% | 1022.8 hPa | 0 mm | - | 130 W/m² | - |
| 1777381684 | 12.78° C | 68% | 1022.7 hPa | 0 mm | - | 140 W/m² | - |
| 1777381379 | 12.78° C | 71% | 1022.9 hPa | 0 mm | - | 150 W/m² | - |
| 1777381076 | 12.22° C | 71% | 1023 hPa | 0 mm | - | 173 W/m² | - |
| 1777380772 | 12.22° C | 72% | 1022.8 hPa | 0 mm | - | 181 W/m² | - |
| 1777380469 | 12.22° C | 71% | 1023 hPa | 0 mm | - | 176 W/m² | - |
| 1777380166 | 12.22° C | 70% | 1022.9 hPa | 0 mm | - | 183 W/m² | - |
| 1777379862 | 12.22° C | 71% | 1022.8 hPa | 0 mm | - | 184 W/m² | - |
| 1777379557 | 12.22° C | 72% | 1022.7 hPa | 0 mm | - | 173 W/m² | - |
| 1777379253 | 12.22° C | 71% | 1022.8 hPa | 0 mm | - | 166 W/m² | - |
| 1777378948 | 12.22° C | 71% | 1022.9 hPa | 0 mm | - | 172 W/m² | - |
| 1777378644 | 12.22° C | 71% | 1022.7 hPa | 0 mm | - | 161 W/m² | - |
| 1777378341 | 12.22° C | 71% | 1022.8 hPa | 0 mm | - | 153 W/m² | - |
| 1777378040 | 12.22° C | 70% | 1022.8 hPa | 0 mm | - | 143 W/m² | - |
| 1777377734 | 12.22° C | 71% | 1022.6 hPa | 0 mm | - | 127 W/m² | - |
| 1777377429 | 12.22° C | 72% | 1022.8 hPa | 0 mm | - | 116 W/m² | - |
| 1777377125 | 11.11° C | 77% | 1022.8 hPa | 0 mm | - | 126 W/m² | - |
* Rain latest hour (hover to see other rain measurements)
** Current wind speed in m/s (hover to see current wind gust speed)